Find Local Weather

World > North America > United States > Wisconsin

Sheboygan, Wisconsin Regional Weather

Lat: 43.75N, Lon: 87.72W
Wx Zone: WIZ052
Warning FLW WEATHER ALERT - (More Info. Click Here) Warning
Feedback
Expires:201806180100;;700621
ASUS43 KMKX 180021
RWRWI 

WISCONSIN REGIONAL WEATHER ROUNDUP
NATIONAL WEATHER SERVICE MILWAUKEE/SULLIVAN WI
700 PM CDT SUN JUN 17 2018

NOTE: "FAIR" INDICATES FEW OR NO CLOUDS BELOW 12,000 FEET WITH NO
SIGNIFICANT WEATHER AND/OR OBSTRUCTIONS TO VISIBILITY.


WIZ051-052-058>065-066-070>072-180100-
SOUTHEAST WISCONSIN
  
CITY           SKY/WX    TMP DP  RH WIND       PRES   REMARKS
MILWAUKEE      PTSUNNY   90  74  59 SW16G25   29.90S HX  99           
6HR MIN TEMP:  90; 6HR MAX TEMP:  93;                                

WAUKESHA       NOT AVBL                                               
MILWAUKEE/TIMM MOSUNNY   88  70  55 SW10G23   29.89F HX  92           
RACINE         FAIR      89  69  51 SW13G24   29.92F HX  93           
6HR MIN TEMP:  86; 6HR MAX TEMP:  91;                                

BURLINGTON     FAIR      79  65  62 S15G21    29.92S HX  81           
6HR MIN TEMP:  64; 6HR MAX TEMP:  84;                                

KENOSHA        FAIR      89  71  55 SW10G21   29.92S HX  95           
6HR MIN TEMP:  88; 6HR MAX TEMP:  92;                                

FOND DU LAC    FAIR      88  71  57 SW16G23   29.86S HX  94           
6HR MIN TEMP:  88; 6HR MAX TEMP:  93;                                

SHEBOYGAN      FAIR      91  68  46 SW14      29.86S HX  95           
6HR MIN TEMP:  89; 6HR MAX TEMP:  94;                                

WEST BEND      FAIR      88  64  45 SW14G28   29.88S HX  89           
JUNEAU         FAIR      87  73  61 S15       29.90S HX  94           
6HR MIN TEMP:  87; 6HR MAX TEMP:  91;                                

$$


SKY/WX - Weather  TMP - Temperature  DP - Dewpoint  RH - Relative Humidity
WIND - Wind Direction/Speed PRES - Barometric Pressure